Retour au catalogue

COSMOS 2251 DEB

ActifLEO
NORAD 33764·DEBRIS·🇷🇺 Russia

Lancé Jun 16, 1993 depuis Plesetsk Cosmodrome

Loading…

Prochains Passages (prochaines 24 heures)

TLE

FraisSource: Space-Track

Époque: Sep 14, 2026, 10:00 UTC

1 33764U 93036M   26257.41727787  .00000489  00000-0  16318-3 0  9992
2 33764  74.0323 123.3864 0021588  18.7434 155.1826 14.39970816921246

Suivez COSMOS 2251 DEB en temps réel avec AllMySat

Download on the App Store